Weather History for Houghton Lake, MI

Change the Weather History Date:

Sunday, June 30, 2013

  Actual Average Record
Temperature  
Mean Temperature 65 °F 66 °F  
Max Temperature 81 °F 79 °F 99 °F (1927)
Min Temperature 48 °F 53 °F 31 °F (1919)
Degree Days  
Heating Degree Days 0 2  
Month to date heating degree days 102 123  
Since 1 June heating degree days 102 124  
Since 1 July heating degree days 7666 8143  
Cooling Degree Days 0 3  
Month to date cooling degree days 79 59  
Year to date cooling degree days 119 75  
Since 1 June cooling degree days 79 59  
Growing Degree Days 18 (Base 50)    
Moisture  
Dew Point 49 °F    
Average Humidity 59    
Maximum Humidity 90    
Minimum Humidity 28    
Precipitation  
Precipitation 0.00 in 0.10 in 1.00 in (1976)
Month to date precipitation 1.29 3.10  
Year to date precipitation 17.23 12.96  
Sea Level Pressure  
Sea Level Pressure 29.92 in    
Wind  
Wind Speed 7 mph (NNE)    
Max Wind Speed 15 mph    
Max Gust Speed 21 mph    
Visibility 10 miles    
Events      
T = Trace of Precipitation, MM = Missing Value Source: NWS Daily Summary

Daily Weather History Graph

Daily Weather History Graph

Search for Another Location

Airport:

Trip Planner

Search our weather history database for the weather conditions in past years. The results will help you decide how hot, cold, wet, or windy it might be!

Date:

Astronomy

Jun. 30, 2013 Rise Set
Actual Time 5:57 AM EDT 9:26 PM EDT
Civil Twilight 5:21 AM EDT 10:03 PM EDT
Nautical Twilight 4:33 AM EDT 10:51 PM EDT
Astronomical Twilight 3:31 AM EDT 11:52 PM EDT
Moon 1:07 AM EDT (6/30) 2:30 PM EDT (6/30)
Length of Visible Light 16h 41m
Length of Day
15h 28m
Last Quarter, 45% of the Moon is Illuminated
Jun 30
Last Quarter
Jul 8
New
Jul 15
First Quarter
Jul 22
Full
Jul 29
Last Quarter

Hourly Weather History & Observations

Time (EDT) Temp. Dew Point Humidity Pressure Visibility Wind Dir Wind Speed Gust Speed Precip Events Conditions
12:53 AM 61.0 °F 57.9 °F 90% 29.81 in 10.0 mi North 4.6 mph - N/A   Clear
1:53 AM 61.0 °F 57.9 °F 90% 29.82 in 10.0 mi North 6.9 mph - N/A   Clear
2:53 AM 63.0 °F 57.0 °F 81% 29.82 in 10.0 mi North 5.8 mph - N/A   Clear
3:53 AM 62.1 °F 55.9 °F 80% 29.82 in 10.0 mi NNE 8.1 mph - N/A   Partly Cloudy
4:53 AM 60.1 °F 54.0 °F 80% 29.84 in 10.0 mi NNE 6.9 mph - N/A   Mostly Cloudy
5:53 AM 57.9 °F 53.1 °F 84% 29.86 in 10.0 mi ENE 4.6 mph - N/A   Mostly Cloudy
6:53 AM 60.1 °F 51.1 °F 72% 29.87 in 10.0 mi NE 8.1 mph - N/A   Overcast
7:53 AM 61.0 °F 51.1 °F 70% 29.89 in 10.0 mi NE 8.1 mph - N/A   Overcast
8:53 AM 64.9 °F 51.1 °F 61% 29.90 in 10.0 mi NE 9.2 mph - N/A   Partly Cloudy
9:53 AM 68.0 °F 48.9 °F 50% 29.93 in 10.0 mi ENE 8.1 mph - N/A   Clear
10:53 AM 72.0 °F 51.1 °F 48% 29.93 in 10.0 mi Variable 6.9 mph - N/A   Clear
11:53 AM 75.0 °F 48.9 °F 40% 29.94 in 10.0 mi NNE 8.1 mph - N/A   Clear
12:53 PM 77.0 °F 46.9 °F 34% 29.94 in 10.0 mi North 10.4 mph - N/A   Clear
1:53 PM 79.0 °F 45.0 °F 30% 29.94 in 10.0 mi North 11.5 mph - N/A   Partly Cloudy
2:53 PM 78.1 °F 45.0 °F 31% 29.94 in 10.0 mi NE 10.4 mph 16.1 mph N/A   Clear
3:53 PM 79.0 °F 46.0 °F 31% 29.93 in 10.0 mi NE 8.1 mph - N/A   Clear
4:53 PM 81.0 °F 45.0 °F 28% 29.94 in 10.0 mi ENE 10.4 mph - N/A   Clear
5:53 PM 79.0 °F 44.1 °F 29% 29.94 in 10.0 mi North 10.4 mph 18.4 mph N/A   Partly Cloudy
6:53 PM 78.1 °F 44.1 °F 30% 29.96 in 10.0 mi NNE 9.2 mph - N/A   Clear
7:53 PM 75.0 °F 42.1 °F 31% 29.99 in 10.0 mi NE 11.5 mph - N/A   Clear
8:53 PM 71.1 °F 39.0 °F 31% 30.00 in 10.0 mi NE 9.2 mph - N/A   Clear
9:53 PM 64.9 °F 39.9 °F 40% 30.01 in 10.0 mi NNE 3.5 mph - N/A   Clear
10:53 PM 55.9 °F 44.1 °F 64% 30.04 in 10.0 mi Calm Calm - 0.02 in   Clear
11:53 PM 53.1 °F 46.0 °F 77% 30.05 in 10.0 mi Calm Calm - N/A   Clear